EST,Max TemperatureF,Mean TemperatureF,Min TemperatureF,Max Dew PointF,MeanDew PointF,Min DewpointF,Max Humidity, Mean Humidity, Min Humidity, Max Sea Level PressureIn, Mean Sea Level PressureIn, Min Sea Level PressureIn, Max VisibilityMiles, Mean VisibilityMiles, Min VisibilityMiles, Max Wind SpeedMPH, Mean Wind SpeedMPH, Max Gust SpeedMPH,PrecipitationIn, CloudCover, Events, WindDirDegrees
2012-12-1,50,42,35,36,30,25,66,61,53,30.30,30.24,30.19,10,10,10,13,7,18,0.00,7,,179
2012-12-2,50,46,42,48,43,34,100,86,66,30.19,30.07,29.97,10,6,0,16,11,23,0.36,6,,209
2012-12-3,55,50,44,54,48,43,100,93,77,30.21,30.16,30.12,10,4,0,12,6,16,0.00,8,,199
2012-12-4,60,50,39,54,48,36,100,84,68,30.12,30.04,29.95,10,9,4,20,10,24,0.60,5,,218
2012-12-5,39,32,26,36,23,16,87,72,59,30.32,30.20,30.04,10,10,10,17,10,25,0.14,7,,316
2012-12-6,41,30,19,19,16,12,86,58,33,30.33,30.18,30.01,10,10,10,14,6,18,0.00,1,,159
2012-12-7,41,37,33,39,32,19,100,85,56,30.01,29.96,29.89,10,4,0,12,7,,0.04,6,,183
2012-12-8,46,40,33,45,39,28,100,92,81,30.11,29.88,29.78,10,4,0,17,5,20,0.02,8,,249
2012-12-9,42,35,28,41,31,25,93,83,61,30.18,30.02,29.74,10,10,7,15,8,23,0.04,8,,112
2012-12-10,51,42,32,50,38,28,100,92,87,29.75,29.63,29.57,10,7,2,15,9,21,0.44,8,,266
2012-12-11,33,30,26,28,24,19,93,81,64,30.15,29.96,29.75,10,9,2,14,7,20,0.01,7,,266
2012-12-12,35,30,24,25,20,18,86,68,52,30.39,30.30,30.15,10,10,10,15,8,23,0.00,1,,225
2012-12-13,39,30,21,23,19,16,93,65,42,30.40,30.33,30.20,10,10,10,14,6,18,0.00,0,,187
2012-12-14,42,35,28,32,24,18,100,70,57,30.23,30.20,30.18,10,9,0,14,7,16,0.00,0,,229
2012-12-15,44,35,26,28,26,23,93,71,43,30.22,30.10,29.90,10,9,1,14,4,22,0.00,3,,161
2012-12-16,48,44,39,41,35,27,93,74,61,29.90,29.77,29.69,10,9,5,17,11,25,0.00,8,,174
2012-12-17,48,44,39,43,41,37,100,89,76,29.75,29.66,29.52,10,6,0,10,6,,0.01,7,,195
2012-12-18,42,37,32,39,33,27,100,89,80,29.76,29.61,29.48,10,7,0,16,7,22,0.32,8,,280
2012-12-19,35,32,30,32,30,27,100,89,80,30.14,29.95,29.74,10,5,2,10,5,,0.00,7,,252
2012-12-20,37,32,28,36,29,27,93,83,65,30.12,29.81,29.33,10,8,0,21,8,36,0.02,5,,153
2012-12-21,37,32,26,34,27,23,93,87,80,29.46,29.29,29.19,10,5,0,24,13,32,0.09,8,,242
2012-12-22,28,26,24,23,21,19,86,77,69,29.94,29.78,29.47,10,4,0,32,21,45,0.01,8,,295
2012-12-23,30,24,17,23,19,14,86,76,64,29.96,29.88,29.82,10,10,2,18,10,21,0.00,6,,245
2012-12-24,32,28,24,27,20,16,93,72,55,29.98,29.88,29.78,10,9,2,10,6,,0.01,6,,131
2012-12-25,30,26,23,28,22,16,93,80,64,30.23,30.09,29.83,10,9,3,10,6,,0.01,7,,10
2012-12-26,24,22,19,21,18,16,93,82,69,30.23,29.90,29.64,10,6,0,18,11,25,0.12,8,,68
2012-12-27,26,22,19,21,20,18,100,89,80,30.01,29.81,29.61,10,7,2,17,11,24,0.11,8,,334
2012-12-28,26,24,19,21,20,18,100,85,74,30.08,30.03,29.93,10,9,3,12,7,16,0.00,7,,281
2012-12-29,26,22,19,25,20,16,93,87,80,29.93,29.73,29.60,10,4,0,15,6,21,0.06,8,,25
2012-12-30,24,22,19,21,19,14,93,82,74,30.20,30.08,29.83,10,5,0,21,13,29,0.01,8,,292
2012-12-31,28,22,17,25,18,14,93,79,64,30.18,29.98,29.88,10,9,2,18,12,24,0.00,5,,221